Etusivu
METAR-TAF:

METAR-TAF

Lentoasemat :

Southern Wisconsin Regional Airport

Janesville, Wisconsin, Yhdysvallat

Leveyspiiri: 42-37N, Pituuspiiri: 089-02W, korkeus merenpinnasta: 246 m

Tämänhetkinen sää

Tämä raportti tehtiin 1 tunti ja 0 minuuttia sitten, kello 19.45 UTC
Tuuli 4 kn pohjoisesta
Lämpötila 4°C
Kosteus 52%
Ilmanpaine 1025 hPa
Näkyvyys: 16.1 km
Hajanaisia pilviä 25000 ft:n korkeudessa

METAR: KJVL 061945Z 35004KT 10SM SCT250 04/M05 A3028

Aika: 14:45 (20:45 UTC)


TAF: puuttuu

Säähavainnot ja -ennusteet yli 4000 lentoasemalta (METAR- ja TAF-raportit).

Käytössä olevat sääasemat on merkitty karttaan keltaisilla ja punaisilla pisteillä.

Aseta hiiri pisteen päälle nähdäksesi sääaseman nimen.

Klikkaa sitten nähdäksesi säähavainnot ja -ennusteet.

Kartan vaihtaminen: klikkaa mustalla rastilla varustettuja vihreitä pisteitä, niin voit zoomata sisään; viivalla varustettua vihreää pistettä, niin voit zoomata ulos tai vihreitä nuolia, niin pääset viereisille kartoille.


METAR-TAF: